Location: Boiro
(42.6475°N, 8.8834°W)
Time: 23:13:44
(UTC+01:00)

Tiros 1 - Pass Details

Date: 12 December 2021
Orbit: 629 x 664 km, 48.4° (Epoch: 18 January)

Event Time Altitude Azimuth Distance (km) Brightness Sun altitude
Rises 23:11:24 0° 293° (WNW) 2,939 - -55.4°
Reaches altitude 10° 23:13:52 10° 284° (WNW) 2,032 - -55.8°
Maximum altitude 23:18:06 34° 219° (SW) 1,051 - -56.5°
Drops below altitude 10° 23:22:22 10° 155° (SSE) 2,043 - -57.3°
Sets 23:24:51 0° 146° (SE) 2,957 - -57.7°
